PRAETORIAN SDA_601

Last updated on Thu Aug 20 2026 00:03:39 GMT+0000 (Coordinated Universal Time)

1 65585U 25203W 26231.20906791 -.00001555 00000+0 -14314-2 0 9991 2 65585 81.3065 312.7663 0006724 43.9471 316.2219 13.83176053 47393
UTC large
Height (km)
Speed (km/s)
/
Latitude / Longitude
Inclination (degrees)
Orbital Period (minutes)
Azimuth
Elevation
Range (km)
Doppler Factor

Next 0 passes for location: London (51.5072 / 0.1276)

No passes found over London.
PRAETORIAN SDA_601